STARLINK-2408, 47823

Orbit data source: Space-Track

STARLINK-2408, 47823 is a payload satellite owned by SpaceX/Seattle (US) in LEO that was launched on Thu, 11 Mar 2021 UTC via an FALCON 9 launch vehicle from the Air Force Eastern Test Range (AFETR). Payload-class satellites include a variety of spacecraft equipped with specific instruments for various scientific and technological missions. These include communications satellites like Starlink; space stations such as the ISS; scientific satellites like the Hubble; Earth observation satellites from companies like Planet Labs, Umbra, and HawkEye 360; GPS; miniature CubeSats for education and research; and military/defense satellites.

Loading next visibility...
Identifier
47823, 2021-018AN
Orbit
LEO
Country
Flag of USUS
Related business
Manufacturer
SpaceX/Seattle
Mission
Operational Commercial Communications
Bus & Motor
STARLINK, Unknown motor
Mass
260 kg wet, ~248 kg dry
Launch date (UTC)
2021-03-11 (5 years ago)
Launch vehicle
FALCON 9
Launch site
Air Force Eastern Test Range (AFETR)
Object type
Payload
Rocket body
Debris
Shape & HBR
Box + 1 Pan, 10.1 m
Radar Cross Section
13.562 m², Large (>1 m²)

Expand to show TLE details & history
Last TLE update: 20 hours ago

TLE from 20 hours ago
0 STARLINK-2408
1 47823U 21018AN  25291.94969370 -.00000996  00000-0 -47987-4 0  9997
2 47823  53.0539 167.9064 0001424  86.6178 273.4974 15.06394320255237
Epoch: 2025-10-18T22:47Z
TLE epoch observation values (Epoch: 2025-10-18T22:47:33.535Z)
Latitude
-0.00002°
Longitude
158.34329°
Altitude
548.048 km
Speed
7.589 km/s
True Right ascension
11h 11m 37s
True Declination
0° 00' 00"
Sunlit
Object was in daylight at epoch
Visualization orbit readout
Latitude
Unknown
Longitude
Unknown
Altitude
Unknown
Speed
Unknown
Apparent Right ascension
Unknown
Apparent Declination
Unknown
Sunlit
N/A
Visualization observer readout
Local Sidereal Time
13:31:06
Azimuth
Unknown
Elevation
Unknown
Doppler factor
Unknown
Orbital elements
Apogee altitude
548.486 km
Perigee altitude
546.514 km
Semi-major axis
6,925.637 km
Eccentricity
0.00014
Inclination
53.0539°
RAAN
167.9064°
Arg. of periapsis
86.6178°
True anomaly
273.48111°
Mean anomaly
273.4974°
Eccentric anomaly
273.48926°
Mean motion
3.76577 °/min
Orbital period
95.6 mins
BSTAR
-0.000047987
Loading maneuver chart data...
Computing Atmospheric mass density...

Documentation

Showing up to 5 results
|